Location: Bear Valley Meadows
(40.9851°N, 123.0761°W)
Time: 01:38:38
(UTC+00:00)

Envisat - Visible Passes

Search period start: 18 July 2024 00:00
Search period end: 28 July 2024 00:00
Orbit: 762 x 764 km, 98.3° (Epoch: 17 July)

Date Brightness Start Highest point End Pass type
(mag) Time Alt. Az. Time Alt. Az. Time Alt. Az.
18 Jul 3.1 11:21:40 10° NNE 11:26:46 74° ESE 11:31:24 12° S visible
19 Jul 4.4 10:44:42 10° NNE 10:49:15 32° E 10:53:31 11° SSE visible
20 Jul 5.4 10:08:51 10° ENE 10:11:31 14° E 10:14:11 10° ESE visible
20 Jul 3.1 11:45:54 10° N 11:50:56 66° WNW 11:55:46 11° SSW visible
21 Jul 3.5 11:08:33 10° NNE 11:13:33 55° E 11:17:53 13° S visible
22 Jul 4.8 10:31:51 10° NE 10:35:58 24° E 10:39:59 10° SSE visible
22 Jul 3.7 12:10:20 10° N 12:15:00 39° WNW 12:19:40 10° SW visible
23 Jul 5.7 09:57:33 10° E 09:58:10 10° E 09:58:47 10° E visible
23 Jul 3.0 11:32:39 10° NNE 11:37:45 86° WNW 11:42:15 13° SSW visible
24 Jul 4.0 10:55:30 10° NNE 11:00:18 41° E 11:04:21 14° SSE visible
25 Jul 5.2 10:19:09 10° NE 10:22:39 18° E 10:26:07 10° SE visible
25 Jul 3.3 11:56:58 10° N 12:01:53 51° WNW 12:06:37 11° SW visible
26 Jul 3.2 11:19:28 10° NNE 11:24:33 72° ESE 11:28:42 15° S visible
27 Jul 4.5 10:42:32 10° NE 10:47:02 31° E 10:50:48 13° SSE visible
27 Jul 4.0 12:21:30 10° N 12:25:55 31° WNW 12:30:18 10° SW visible
